Погода Курган-Тюбе

Погода Курган-Тюбе : погода сейчас, прогноз погоды и архив. Всё, что Вы хотите узнать о погоде Курган-Тюбе!

Поиск расширенной информации на нашем сайте:

Другие новости

Новости СМИ2

Главная страница сайта

Новости сайта

03.07.2017

Напоминаем, что на нашем специализированном сайте Метеоцентр.Азия вы можете получить высокодетализированные автоматические прогнозы погоды по пунктам России, СНГ и мира в авиационном формате (включающие направление и скорость ветра, видимость, явления погоды, количество и форму облачности, нижнюю и верхнюю границу облачности).


Погода Курган-Тюбе - сегодня

Время (UTC), дата Ветер
(°,м/с) 
Видим.   Явления Облачность Т
(°С)
Тd
(°С)
f(%) Тe
(°С)
Pmin
(гПа)
dP
(гПа)
Po
(мм)
O2
(г/м3)
Тmin Tmax R s Состояние
почвы
15 10.12.17 090 (В) н/о    ясно 
+4.8 -1.8 62 +6  1024.4  -0.7  729  289    +10.7       
18 10.12.17 090 (В) н/о    ясно 
+2.2 -1.2 78 +3  1024.7  729  291    +10.7       
21 10.12.17 050 (СВ) н/о    ясно 
+0.4 -1 90 +1  1023.8  -1.2  728  293           
00 11.12.17 320 (СЗ) н/о    ясно 
-0.6 -2.1 90 1023.8  -0.2  728  294           
03 11.12.17 тихо ()   1000 м  дымка  ясно 
-0.8 -2 92 -1  1023.8  728  294  -1.3         
06 11.12.17 000 (С) 41  4000 м  дымка  1/0 
-0.2   1026  730    -1.3         
09 11.12.17 230 (ЮЗ) 4000 м  дымка  ясно 
+7.4 -2.5 49 +7  1022.3  -3  728  286           
12 11.12.17 180 (Ю) 4000 м  дымка  3/0 верхняя 
[Ci sp]
+6.6 -5.1 43 +8  1021.6  -0.8  727  287           
15 11.12.17 140 (ЮВ) н/о  дымка  4/0 верхняя 
[Ci sp]
+3.4 -3.3 61 +4  1023.7  1.5  729  290    +7.6       
18 11.12.17 180 (Ю) н/о    10/0 средняя 
[Ac und]
+4.3 -2.8 60 +4  1024.1  0.5  729  289    +7.6       
21 11.12.17 180 (Ю) н/о    10/0 средняя 
[Ac und]
+4 -4 56 +5  1024.4  0.2  729  290           
00 12.12.17 140 (ЮВ) н/о    10/0 средняя 
[Ac und]
+3.4 -4.4 57 +4  1024.6  729  291           
03 12.12.17 230 (ЮЗ) 4000 м  дымка  10/6 1500 м средняя 
[Sc|Ac und]
+2.9 -4 60 +4  1026.3  1.6  730  292  +2.9         
06 12.12.17 200 (Ю) 4000 м  дымка  9/0 средняя 
[Ac trans]
+5 -4.4 51 +5  1028  1.9  732  290  +2.9         
09 12.12.17 180 (Ю) 4000 м  дымка  9/4 1500 м средняя 
[Sc|Ac trans]
+7 -4.1 45 +8  1027.4  732  288           
12 12.12.17 180 (Ю) 4000 м  дымка  10/0 средняя 
[Ac und]
+6.6 -3.6 48 +8  1029  1.3  733  289           
15 12.12.17 360 (С) н/о  дымка  10/0 средняя 
[Ac und]
+5.2 -3.4 54 +6  1025.1  0.9  733  290    +7.5       
18 12.12.17 090 (В) н/о    ясно 
+2.2 -3.1 68 +3  1031  0.2  734  293    +7.5       
21 12.12.17 050 (СВ) н/о    ясно 
+0.3 -2.4 82 +1  1031.2  -0.1  733  295           
00 13.12.17 230 (ЮЗ) н/о    10/0 верхняя 
[Ci ing]
-0.1 -2.2 86 +1  1030  -1.4  732  295           
03 13.12.17 050 (СВ) 1000 м  дымка  ясно 
-1.3 -2.5 92 -1  1030.2  732  297  -1.7         
06 13.12.17 тихо ()   4000 м  дымка  ясно 
+5 -0.9 66 +5  1030.4  1.5  734  290  -1.7         
09 13.12.17 230 (ЮЗ) 4000 м  дымка  4/0 верхняя 
[Ci fib]
+8.2 -2.7 46 +9  1026.3  -3.3  731  286           
12 13.12.17 тихо ()   10 км    3/0 верхняя 
[Ci fib]
+6.8 -2.9 50 +7  1025.3  -1.3  730  287           
15 13.12.17 270 (З) н/о    ясно 
+2.7 -3.2 65 +3  1025.5  -0.5  730  291    +9.2       
Время (UTC), дата Ветер
(°,м/с) 
Видим.   Явления Облачность Т
(°С)
Тd
(°С)
f(%) Тe
(°С)
Pmin
(гПа)
dP
(гПа)
Po
(мм)
O2
(г/м3)
Тmin Tmax R s Состояние
почвы

Для получения пояснительной информации подведите курсор к названию столбца.

ПОГОДА Курган-Тюбе - архив

Всё, что Вы хотите узнать о погоде Курган-Тюбе - удобно и подробно!

Выберите нужную дату (начиная с 1 января 2015* года) и нажмите кнопку "Найти".
Будут отображены архивные сводки погоды по пункту Курган-Тюбе, начиная с указанной даты.


Отображать данные в формате CSV (для использования в таблицах Excel)


Внимание! Наш архив погоды предназначен исключительно для личного некоммерческого использования в познавательных целях. Если Вам необходимы официальные справки о состоянии погоды (для производственных, юридических, коммерческих и т.п. целей), обращайтесь в органы Росгидромета.

*Примечание: данная дата относится к архиву по метеостанциям СССР (Россия, СНГ, Балтия).
Архив по метеостанциям Зарубежной Европы и Азии (кроме Китая) хранится 10 дней, по другим регионам земного шара (Китай, Африка, Америка, Австралия, Океания) - 1 день.

Курган-Тюбе - район местоположения метеостанции


Название, широта, долгота, высота метеостанции:
Курган-Тюбе 37.8°ш. 68.8°д. 429 м над ур. моря [Таджикистан]

Дополнительная информация

В oтличие oт бoльшинства пoгoдных сайтoв мы публикуем пoдрoбную метеoинфoрмацию в детальнoм прoфессиoнальнoм фoрмате.

Характеристики температуры и влажнoсти вoздуха измеряются на высoте 2 м в тени вдали oт зданий и деревьев.
Скoрoсть ветра измеряется на высoте 10 м (на урoвне рoста челoвека скoрoсть ветра ниже в 1.5-2 раза). Если метеoстанция нахoдится в гoрoде или в лесу, тo скoрoсть ветра занижена на 2-4 м/с пo сравнению с oткрытым местoм. Скoрoсть ветра над акватoриями крупных рек и oзёр, а также на вершинах хoлмoв на 2-5 м/с выше, чем в oбычных услoвиях.
Атмoсфернoе давление в разных тoчках местнoсти мoжет значительнo oтличаться oт давления на метеoстанции, в зависимoсти oт услoвий рельефа (при пoдъёме на 10 м давление пoнижается примернo на 1 мм рт.ст.).